AC2JK-WX Weather Reports


Display with metric or nautical units.
time (UTC)temp
F
wind
direction
speed
MPH
gust
MPH
rain 1hr
in
rain 24hr
in
rain mn
in
humidity
%
barometer
mb
20260509153709 60 245 3.0 12.0 0.00 0.00 0.00 70 1007.0
20260509153209 60 245 1.0 8.0 0.00 0.00 0.00 71 1007.0
20260509152709 61 245 3.0 9.0 0.00 0.00 0.00 67 1007.0
20260509152209 61 245 2.0 3.0 0.00 0.00 0.00 68 1007.0
20260509151709 61 245 2.0 5.0 0.00 0.00 0.00 69 1007.0
20260509151209 61 245 4.0 6.0 0.00 0.00 0.00 70 1007.0
20260509150709 60 245 1.0 4.0 0.00 0.00 0.00 71 1007.0
20260509150209 59 245 3.0 7.0 0.00 0.00 0.00 73 1007.0
20260509145712 60 245 3.0 3.0 0.00 0.00 0.00 73 1007.0
20260509145209 59 245 4.0 4.0 0.00 0.00 0.00 72 1007.0
20260509144710 60 245 1.0 5.0 0.00 0.00 0.00 72 1007.0
20260509144209 60 245 1.0 2.0 0.00 0.00 0.00 74 1007.0
20260509143710 60 245 3.0 4.0 0.00 0.00 0.00 74 1007.0
20260509143210 59 245 4.0 6.0 0.00 0.00 0.00 74 1007.0
20260509142709 59 245 3.0 6.0 0.00 0.00 0.00 75 1007.0
20260509142209 59 245 2.0 6.0 0.00 0.00 0.00 75 1007.0
20260509141709 58 245 1.0 4.0 0.00 0.00 0.00 74 1007.0
20260509141210 59 245 3.0 5.0 0.00 0.00 0.00 75 1007.0
20260509140709 58 245 2.0 4.0 0.00 0.00 0.00 76 1007.0
20260509140210 58 245 0.0 4.0 0.00 0.00 0.00 77 1007.0
20260509135709 57 245 2.0 2.0 0.00 0.00 0.00 77 1008.0
20260509135209 57 245 2.0 3.0 0.00 0.00 0.00 78 1008.0
20260509134709 57 245 3.0 3.0 0.00 0.00 0.00 78 1008.0
20260509134210 57 245 3.0 6.0 0.00 0.00 0.00 78 1008.0
20260509133711 56 245 2.0 7.0 0.00 0.00 0.00 78 1008.0
20260509133210 57 245 3.0 4.0 0.00 0.00 0.00 79 1008.0
20260509132710 56 245 4.0 4.0 0.00 0.00 0.00 79 1008.0
20260509132210 56 245 2.0 4.0 0.00 0.00 0.00 79 1008.0
20260509131709 56 245 2.0 6.0 0.00 0.00 0.00 80 1008.0
20260509131209 56 245 2.0 4.0 0.00 0.00 0.00 80 1008.0
20260509130710 56 245 3.0 5.0 0.00 0.00 0.00 81 1008.0
20260509130209 56 245 3.0 5.0 0.00 0.00 0.00 81 1008.0
20260509125709 56 245 3.0 7.0 0.00 0.00 0.00 80 1008.0
20260509125209 55 245 3.0 4.0 0.00 0.00 0.00 81 1008.0
20260509124709 55 245 1.0 4.0 0.00 0.00 0.00 82 1008.0
20260509124209 54 245 0.0 3.0 0.00 0.00 0.00 82 1008.0
20260509123709 54 245 0.0 2.0 0.00 0.00 0.00 83 1008.0
20260509123211 53 245 3.0 3.0 0.00 0.00 0.00 84 1008.0
20260509122710 53 245 0.0 5.0 0.00 0.00 0.00 84 1008.0
20260509122209 53 245 2.0 3.0 0.00 0.00 0.00 84 1008.0
20260509121709 52 245 2.0 4.0 0.00 0.00 0.00 84 1008.0
20260509121210 52 245 0.0 5.0 0.00 0.00 0.00 85 1008.0
20260509120709 52 245 1.0 1.0 0.00 0.00 0.00 86 1008.0
20260509120209 51 245 2.0 2.0 0.00 0.00 0.00 86 1008.0
20260509115709 51 245 0.0 0.0 0.00 0.00 0.00 87 1008.0
20260509115209 50 245 2.0 2.0 0.00 0.00 0.00 87 1008.0
20260509114709 49 245 0.0 2.0 0.00 0.00 0.00 87 1008.0
20260509114210 49 245 0.0 1.0 0.00 0.00 0.00 88 1008.0
20260509113709 49 245 2.0 3.0 0.00 0.00 0.00 88 1008.0
20260509113210 48 245 1.0 2.0 0.00 0.00 0.00 89 1008.0
20260509112709 48 245 0.0 2.0 0.00 0.00 0.00 90 1008.0
20260509112210 47 245 1.0 2.0 0.00 0.00 0.00 91 1008.0
20260509111709 47 245 1.0 1.0 0.00 0.00 0.00 92 1008.0
20260509111209 46 245 0.0 3.0 0.00 0.00 0.00 92 1008.0
20260509110710 45 245 0.0 2.0 0.00 0.00 0.00 93 1008.0
20260509110211 44 245 0.0 0.0 0.00 0.00 0.00 92 1008.0
20260509105709 43 245 0.0 0.0 0.00 0.00 0.00 91 1008.0
20260509105209 43 245 0.0 0.0 0.00 0.00 0.00 91 1008.0
20260509104710 42 245 0.0 0.0 0.00 0.00 0.00 91 1008.0
20260509104209 42 245 0.0 0.0 0.00 0.00 0.00 90 1008.0
20260509103709 42 245 0.0 0.0 0.00 0.00 0.00 90 1008.0
20260509103209 42 245 0.0 0.0 0.00 0.00 0.00 90 1008.0
20260509102709 42 245 0.0 0.0 0.00 0.00 0.00 90 1008.0
20260509102209 42 245 0.0 0.0 0.00 0.00 0.00 90 1008.0
20260509101709 42 245 0.0 0.0 0.00 0.00 0.00 89 1008.0
20260509101209 42 245 0.0 0.0 0.00 0.00 0.00 89 1008.0
20260509100709 42 245 0.0 0.0 0.00 0.00 0.00 89 1008.0
20260509100211 42 245 0.0 0.0 0.00 0.00 0.00 89 1008.0
20260509095709 42 245 0.0 0.0 0.00 0.00 0.00 88 1008.0
20260509095209 42 245 0.0 0.0 0.00 0.00 0.00 89 1008.0
20260509094709 42 245 0.0 0.0 0.00 0.00 0.00 88 1008.0
20260509094209 42 245 0.0 0.0 0.00 0.00 0.00 88 1008.0
20260509093709 42 245 0.0 0.0 0.00 0.00 0.00 87 1008.0
20260509093211 42 245 0.0 0.0 0.00 0.00 0.00 87 1008.0
20260509092710 42 245 0.0 0.0 0.00 0.00 0.00 87 1008.0
20260509092209 42 245 0.0 0.0 0.00 0.00 0.00 87 1008.0
20260509091709 43 245 0.0 0.0 0.00 0.00 0.00 86 1008.0
20260509091210 43 245 0.0 0.0 0.00 0.00 0.00 86 1008.0
20260509090709 43 245 0.0 0.0 0.00 0.00 0.00 86 1008.0
20260509090210 43 245 0.0 0.0 0.00 0.00 0.00 86 1008.0
20260509085709 42 245 0.0 0.0 0.00 0.00 0.00 85 1008.0
20260509085209 43 245 0.0 0.0 0.00 0.00 0.00 85 1008.0
20260509084709 43 245 0.0 0.0 0.00 0.00 0.00 85 1008.0
20260509084209 43 245 0.0 0.0 0.00 0.00 0.00 83 1008.0
20260509083709 43 245 0.0 0.0 0.00 0.00 0.00 83 1008.0
20260509083209 43 245 0.0 0.0 0.00 0.00 0.00 82 1008.0
20260509082710 43 245 0.0 0.0 0.00 0.00 0.00 82 1008.0
20260509082211 43 245 0.0 0.0 0.00 0.00 0.00 81 1008.0
20260509081709 43 245 0.0 0.0 0.00 0.00 0.00 80 1008.0
20260509081209 43 245 0.0 1.0 0.00 0.00 0.00 80 1008.0
20260509080710 43 245 0.0 1.0 0.00 0.00 0.00 80 1008.0
20260509080209 43 245 0.0 1.0 0.00 0.00 0.00 80 1008.0
20260509075709 43 245 1.0 1.0 0.00 0.00 0.00 79 1008.0
20260509075209 43 245 0.0 1.0 0.00 0.00 0.00 78 1009.0
20260509074709 43 245 1.0 1.0 0.00 0.00 0.00 78 1009.0
20260509074209 43 245 1.0 1.0 0.00 0.00 0.00 77 1009.0
20260509073709 43 245 0.0 0.0 0.00 0.00 0.00 76 1009.0
20260509073210 43 245 0.0 2.0 0.00 0.00 0.00 76 1009.0
20260509072709 43 245 0.0 2.0 0.00 0.00 0.00 76 1009.0
20260509072209 43 245 2.0 2.0 0.00 0.00 0.00 76 1009.0
20260509071709 42 245 1.0 1.0 0.00 0.00 0.00 78 1009.0
20260509071209 42 245 0.0 2.0 0.00 0.00 0.00 78 1009.0
20260509070709 42 245 1.0 2.0 0.00 0.00 0.00 77 1009.0
20260509070209 42 245 0.0 0.0 0.00 0.00 0.00 77 1009.0
20260509065710 42 245 0.0 0.0 0.00 0.00 0.00 76 1009.0
20260509065209 42 245 0.0 0.0 0.00 0.00 0.00 76 1009.0
20260509064710 42 245 0.0 0.0 0.00 0.00 0.00 76 1009.0
20260509064210 42 245 0.0 1.0 0.00 0.00 0.00 75 1009.0
20260509063709 42 245 0.0 1.0 0.00 0.00 0.00 75 1009.0
20260509063209 42 245 1.0 1.0 0.00 0.00 0.00 75 1009.0
20260509062710 42 245 0.0 1.0 0.00 0.00 0.00 75 1009.0
20260509062210 42 245 0.0 1.0 0.00 0.00 0.00 75 1009.0
20260509061711 42 245 1.0 1.0 0.00 0.00 0.00 74 1010.0
20260509061210 42 245 0.0 1.0 0.00 0.00 0.00 74 1010.0
20260509060709 42 245 0.0 1.0 0.00 0.00 0.00 73 1010.0
20260509060209 42 245 0.0 0.0 0.00 0.00 0.00 74 1010.0
20260509055709 43 245 0.0 0.0 0.00 0.00 0.00 73 1010.0
20260509055209 43 245 0.0 0.0 0.00 0.00 0.00 73 1010.0
20260509054710 43 245 0.0 0.0 0.00 0.00 0.00 72 1010.0
20260509054209 43 245 0.0 0.0 0.00 0.00 0.00 72 1010.0
20260509053709 43 245 0.0 0.0 0.00 0.00 0.00 73 1010.0
20260509053209 43 245 0.0 0.0 0.00 0.00 0.00 72 1010.0
20260509052709 43 245 0.0 0.0 0.00 0.00 0.00 71 1010.0
20260509052210 43 245 0.0 0.0 0.00 0.00 0.00 71 1010.0
20260509051710 43 245 1.0 1.0 0.00 0.00 0.00 70 1010.0
20260509051209 43 245 0.0 1.0 0.00 0.00 0.00 70 1010.0
20260509050709 43 245 0.0 1.0 0.00 0.00 0.00 71 1010.0
20260509050209 43 245 0.0 2.0 0.00 0.00 0.00 72 1010.0
20260509045710 43 245 1.0 1.0 0.00 0.00 0.00 73 1010.0
20260509045209 43 245 0.0 0.0 0.00 0.00 0.00 73 1010.0
20260509044709 43 245 0.0 0.0 0.00 0.00 0.00 73 1010.0
20260509044210 43 245 0.0 0.0 0.00 0.00 0.00 71 1010.0
20260509043710 43 245 0.0 0.0 0.00 0.00 0.00 71 1010.0
20260509043210 43 245 0.0 0.0 0.00 0.00 0.00 70 1010.0
20260509042709 43 245 0.0 0.0 0.00 0.00 0.00 70 1011.0
20260509042211 43 245 0.0 0.0 0.00 0.00 0.00 69 1011.0
20260509041709 43 245 1.0 2.0 0.00 0.00 0.00 69 1011.0
20260509041209 43 245 0.0 0.0 0.00 0.00 0.00 70 1011.0
20260509040709 43 245 0.0 1.0 0.00 0.00 0.00 70 1011.0
20260509040209 42 245 0.0 1.0 0.00 0.00 0.08 70 1011.0
20260509035709 42 245 1.0 1.0 0.00 0.00 0.08 71 1011.0
20260509035209 42 245 0.0 1.0 0.00 0.00 0.08 72 1011.0
20260509034709 43 245 1.0 1.0 0.00 0.00 0.08 72 1011.0
20260509034209 43 245 1.0 1.0 0.00 0.00 0.08 73 1011.0
20260509033709 43 245 0.0 1.0 0.00 0.00 0.08 72 1011.0
20260509033209 43 245 1.0 1.0 0.00 0.00 0.08 72 1011.0
20260509032709 43 245 1.0 1.0 0.00 0.00 0.08 71 1011.0
20260509032210 43 245 0.0 1.0 0.00 0.00 0.08 72 1011.0
20260509031709 43 245 1.0 1.0 0.00 0.00 0.08 71 1011.0
20260509031210 43 245 1.0 1.0 0.00 0.00 0.08 68 1011.0
20260509030710 44 245 0.0 1.0 0.00 0.00 0.08 70 1011.0
20260509030209 44 245 0.0 1.0 0.00 0.00 0.08 71 1011.0
20260509025709 44 245 0.0 1.0 0.00 0.00 0.08 70 1011.0
20260509025209 44 245 0.0 1.0 0.00 0.00 0.08 70 1011.0
20260509024710 44 245 1.0 1.0 0.00 0.00 0.08 70 1011.0
20260509024209 44 245 1.0 1.0 0.00 0.00 0.08 69 1011.0
20260509023709 44 245 0.0 1.0 0.00 0.00 0.08 65 1011.0
20260509023210 45 245 1.0 1.0 0.00 0.00 0.08 66 1011.0
20260509022709 45 245 1.0 1.0 0.00 0.00 0.08 67 1011.0
20260509022209 45 245 0.0 1.0 0.00 0.00 0.08 66 1011.0
20260509021709 45 245 0.0 1.0 0.00 0.00 0.08 63 1011.0
20260509021210 45 245 1.0 1.0 0.00 0.00 0.08 65 1011.0
20260509020709 46 245 1.0 1.0 0.00 0.00 0.08 62 1011.0
20260509020210 46 245 0.0 1.0 0.00 0.00 0.08 60 1011.0
20260509015709 46 245 0.0 1.0 0.00 0.00 0.08 57 1011.0
20260509015212 46 245 1.0 1.0 0.00 0.00 0.08 57 1011.0
20260509014709 47 245 0.0 1.0 0.00 0.00 0.08 54 1011.0
20260509014212 47 245 0.0 1.0 0.00 0.00 0.08 59 1011.0
20260509013709 47 245 1.0 1.0 0.00 0.00 0.08 65 1011.0
20260509013209 47 245 0.0 1.0 0.00 0.00 0.08 64 1011.0
20260509012710 47 245 0.0 1.0 0.00 0.00 0.08 54 1011.0
20260509012209 48 245 1.0 1.0 0.00 0.00 0.08 56 1011.0
20260509011709 48 245 1.0 1.0 0.00 0.00 0.08 62 1011.0
20260509011211 48 245 0.0 1.0 0.00 0.00 0.08 49 1011.0
20260509010710 49 245 0.0 1.0 0.00 0.00 0.08 49 1011.0
20260509010209 49 245 1.0 1.0 0.00 0.00 0.08 53 1011.0
20260509005709 49 245 0.0 1.0 0.00 0.00 0.08 50 1011.0
20260509005209 50 245 0.0 1.0 0.00 0.00 0.08 46 1011.0
20260509004709 50 245 1.0 1.0 0.00 0.00 0.08 47 1011.0
20260509004209 51 245 0.0 1.0 0.00 0.00 0.08 41 1011.0
20260509003709 51 245 0.0 1.0 0.00 0.00 0.08 38 1011.0
20260509003209 52 245 1.0 1.0 0.00 0.00 0.08 37 1011.0
20260509002709 52 245 1.0 2.0 0.00 0.00 0.08 35 1011.0
20260509002209 52 245 0.0 2.0 0.00 0.00 0.08 34 1011.0
20260509001709 52 245 0.0 2.0 0.00 0.00 0.08 35 1011.0
20260509001209 53 245 0.0 1.0 0.00 0.00 0.08 36 1011.0
20260509000709 53 245 0.0 1.0 0.00 0.00 0.08 35 1010.0
20260509000211 53 245 1.0 3.0 0.00 0.00 0.08 35 1010.0
20260508235709 53 245 1.0 2.0 0.00 0.00 0.08 34 1010.0
20260508235209 54 245 2.0 3.0 0.00 0.00 0.08 34 1010.0
20260508234709 54 245 1.0 3.0 0.00 0.00 0.08 35 1010.0
20260508234209 54 245 2.0 4.0 0.00 0.00 0.08 33 1010.0
20260508233709 54 245 3.0 3.0 0.00 0.00 0.08 34 1010.0
20260508233210 54 245 1.0 4.0 0.00 0.00 0.08 33 1010.0
20260508232709 55 245 2.0 5.0 0.00 0.00 0.08 33 1010.0
20260508232209 55 245 1.0 5.0 0.00 0.00 0.08 32 1010.0
20260508231709 56 245 3.0 4.0 0.00 0.00 0.08 31 1010.0
20260508231210 56 245 6.0 6.0 0.00 0.00 0.08 29 1010.0
20260508230709 57 245 2.0 3.0 0.00 0.00 0.08 29 1010.0
20260508230210 57 245 3.0 4.0 0.00 0.00 0.08 30 1010.0
20260508225711 58 245 1.0 3.0 0.00 0.00 0.08 32 1010.0
20260508225210 59 245 6.0 6.0 0.00 0.00 0.08 30 1010.0
20260508224710 59 245 1.0 3.0 0.00 0.00 0.08 32 1010.0
20260508224209 59 245 1.0 3.0 0.00 0.00 0.08 32 1010.0
20260508223710 59 245 3.0 5.0 0.00 0.00 0.08 33 1011.0
20260508223209 59 245 4.0 6.0 0.00 0.00 0.08 33 1011.0
20260508222709 59 245 2.0 5.0 0.00 0.00 0.08 33 1011.0
20260508222209 59 245 4.0 4.0 0.00 0.00 0.08 34 1011.0
20260508221709 59 245 1.0 1.0 0.00 0.00 0.08 36 1011.0
20260508221209 59 245 2.0 2.0 0.00 0.00 0.08 35 1011.0
20260508220710 59 245 2.0 4.0 0.00 0.00 0.08 35 1011.0
20260508220209 59 245 3.0 4.0 0.00 0.00 0.08 35 1011.0
20260508215709 58 245 3.0 4.0 0.00 0.00 0.08 34 1011.0
20260508215209 58 245 2.0 5.0 0.00 0.00 0.08 33 1011.0
20260508214709 59 245 3.0 7.0 0.00 0.00 0.08 33 1011.0
20260508214209 58 245 3.0 3.0 0.00 0.00 0.08 34 1011.0
20260508213322 59 245 4.0 4.0 0.00 0.00 0.08 33 1011.0
20260508212710 58 245 2.0 4.0 0.00 0.00 0.08 33 1011.0
20260508212210 57 245 3.0 6.0 0.00 0.00 0.08 34 1011.0
20260508211709 57 245 4.0 5.0 0.00 0.00 0.08 35 1011.0
20260508211209 58 245 3.0 5.0 0.00 0.00 0.08 35 1011.0
20260508210710 58 245 4.0 4.0 0.00 0.00 0.08 34 1011.0
20260508210211 59 245 5.0 5.0 0.00 0.00 0.08 33 1011.0
20260508205709 60 245 3.0 3.0 0.00 0.00 0.08 33 1011.0
20260508205209 59 245 1.0 3.0 0.00 0.00 0.08 37 1011.0
20260508204709 58 245 2.0 4.0 0.00 0.00 0.08 39 1011.0
20260508204210 59 245 3.0 5.0 0.00 0.00 0.08 33 1011.0
20260508203709 59 245 4.0 6.0 0.00 0.00 0.08 34 1011.0
20260508203210 59 245 3.0 3.0 0.00 0.00 0.08 35 1011.0
20260508202709 60 245 2.0 2.0 0.00 0.00 0.08 38 1011.0
20260508202209 60 245 2.0 4.0 0.00 0.00 0.08 36 1011.0
20260508201709 60 245 3.0 5.0 0.00 0.00 0.08 35 1011.0
20260508201209 59 245 3.0 4.0 0.00 0.00 0.08 38 1011.0
20260508200709 59 245 3.0 4.0 0.00 0.00 0.08 38 1011.0
20260508200209 60 245 3.0 5.0 0.00 0.00 0.08 39 1011.0
20260508195709 59 245 3.0 6.0 0.00 0.00 0.08 38 1011.0
20260508195209 59 245 2.0 6.0 0.00 0.00 0.08 36 1011.0
20260508194709 59 245 2.0 6.0 0.00 0.00 0.08 38 1011.0
20260508194209 59 245 1.0 3.0 0.00 0.00 0.08 42 1011.0
20260508193709 59 245 6.0 6.0 0.00 0.00 0.08 39 1011.0
20260508193210 59 245 1.0 6.0 0.00 0.00 0.08 44 1012.0
20260508192709 59 245 2.0 4.0 0.00 0.00 0.08 42 1012.0
20260508192209 60 245 2.0 4.0 0.00 0.00 0.08 43 1012.0
20260508191709 59 245 4.0 5.0 0.00 0.00 0.08 43 1012.0
20260508191209 59 245 2.0 3.0 0.00 0.00 0.08 44 1012.0
20260508190709 59 245 8.0 8.0 0.00 0.00 0.08 43 1012.0
20260508190210 59 245 5.0 6.0 0.00 0.00 0.08 44 1012.0
20260508185709 58 245 1.0 5.0 0.00 0.00 0.08 45 1012.0
20260508185210 57 245 3.0 5.0 0.00 0.00 0.08 47 1012.0
20260508184710 58 245 4.0 6.0 0.00 0.00 0.08 47 1012.0
20260508184209 58 245 3.0 6.0 0.00 0.00 0.08 45 1012.0
20260508183710 58 245 3.0 4.0 0.00 0.00 0.08 48 1012.0
20260508183209 58 245 4.0 6.0 0.00 0.00 0.08 48 1012.0
20260508182709 57 245 1.0 1.0 0.00 0.00 0.08 51 1012.0
20260508182209 58 245 7.0 7.0 0.00 0.00 0.08 48 1012.0
20260508181710 58 245 2.0 3.0 0.00 0.00 0.08 48 1012.0
20260508181209 58 245 3.0 4.0 0.00 0.00 0.08 54 1012.0
20260508180709 57 245 3.0 4.0 0.00 0.00 0.08 54 1012.0
20260508180211 57 245 4.0 4.0 0.00 0.00 0.08 49 1012.0
20260508175710 58 245 2.0 3.0 0.00 0.00 0.08 54 1012.0
20260508175209 57 245 2.0 5.0 0.00 0.00 0.08 52 1012.0
20260508174709 56 245 2.0 4.0 0.00 0.00 0.08 52 1012.0
20260508174209 56 245 3.0 6.0 0.00 0.00 0.08 55 1012.0
20260508173711 55 245 3.0 6.0 0.00 0.00 0.08 57 1012.0
20260508173212 55 245 5.0 6.0 0.00 0.00 0.08 54 1012.0
20260508172711 56 245 3.0 6.0 0.00 0.00 0.08 55 1013.0
20260508172211 57 245 4.0 6.0 0.00 0.00 0.08 53 1013.0
20260508171710 57 245 2.0 3.0 0.00 0.00 0.08 54 1013.0
20260508171210 57 245 1.0 4.0 0.00 0.00 0.08 55 1013.0
20260508170712 57 245 4.0 4.0 0.00 0.00 0.08 54 1013.0
20260508170211 56 245 2.0 3.0 0.00 0.00 0.08 55 1013.0
20260508165710 56 245 4.0 6.0 0.00 0.00 0.08 55 1013.0
20260508165211 56 245 2.0 4.0 0.00 0.00 0.08 56 1013.0
20260508164712 56 245 4.0 4.0 0.00 0.00 0.08 59 1013.0
20260508164211 55 245 4.0 4.0 0.00 0.00 0.08 58 1013.0
20260508163709 55 245 3.0 5.0 0.00 0.00 0.08 59 1013.0
20260508163211 55 245 2.0 3.0 0.00 0.00 0.08 60 1013.0
20260508162710 54 245 4.0 4.0 0.00 0.00 0.08 58 1013.0
20260508162216 54 245 0.0 3.0 0.00 0.00 0.08 60 1013.0
20260508161711 56 245 3.0 5.0 0.00 0.00 0.08 56 1013.0
20260508161212 55 245 2.0 3.0 0.00 0.00 0.08 62 1013.0
20260508160713 54 245 3.0 5.0 0.00 0.00 0.08 59 1013.0
20260508160210 55 245 1.0 1.0 0.00 0.00 0.08 62 1013.0
20260508155710 54 245 2.0 6.0 0.00 0.00 0.08 64 1013.0
20260508155214 54 245 1.0 7.0 0.00 0.00 0.08 62 1013.0
20260508154709 55 245 2.0 6.0 0.00 0.00 0.08 60 1013.0
20260508154209 55 245 4.0 4.0 0.00 0.00 0.08 61 1013.0